| time (UTC) | temp C | wind direction | speed KPH | gust KPH | rain 1hr cm | rain 24hr cm | rain mn cm | humidity % | barometer mb |
| 20260504081233 | 2 | 290 | 0.0 | 0.0 | 0.00 | 0.00 | 0.00 | 76 | 1019.4 |
| 20260504080730 | 2 | 290 | 0.0 | 0.0 | 0.00 | 0.00 | 0.00 | 72 | 1019.6 |
| 20260504080226 | 2 | 290 | 0.0 | 0.0 | 0.00 | 0.00 | 0.00 | 71 | 1019.4 |
| 20260504070154 | 2 | 285 | 0.0 | 1.6 | 0.00 | 0.00 | 0.00 | 70 | 1019.4 |
| 20260504060120 | 2 | 284 | 0.0 | 0.0 | 0.00 | 0.00 | 0.00 | 67 | 1018.9 |
| 20260504050548 | 2 | 303 | 1.6 | 1.6 | 0.00 | 0.00 | 0.00 | 67 | 1018.9 |
| 20260504045541 | 1 | 294 | 0.0 | 0.0 | 0.00 | 0.00 | 0.00 | 69 | 1018.9 |
| 20260504045037 | 2 | 294 | 0.0 | 0.0 | 0.00 | 0.00 | 0.00 | 68 | 1018.6 |
| 20260504044534 | 2 | 294 | 0.0 | 0.0 | 0.00 | 0.00 | 0.00 | 68 | 1018.8 |
| 20260504044031 | 2 | 294 | 0.0 | 0.0 | 0.00 | 0.00 | 0.00 | 66 | 1018.8 |
| 20260504043528 | 3 | 294 | 0.0 | 0.0 | 0.00 | 0.00 | 0.00 | 66 | 1018.7 |
| 20260504043026 | 3 | 294 | 0.0 | 0.0 | 0.00 | 0.00 | 0.00 | 63 | 1018.6 |
| 20260504042523 | 3 | 294 | 0.0 | 0.0 | 0.00 | 0.00 | 0.00 | 61 | 1018.6 |
| 20260504042020 | 4 | 294 | 0.0 | 0.0 | 0.00 | 0.00 | 0.00 | 59 | 1018.6 |
| 20260504041515 | 4 | 294 | 0.0 | 0.0 | 0.00 | 0.00 | 0.00 | 59 | 1018.9 |
| 20260504041011 | 5 | 294 | 0.0 | 0.0 | 0.00 | 0.00 | 0.00 | 58 | 1018.5 |
| 20260504040509 | 5 | 294 | 0.0 | 0.0 | 0.00 | 0.00 | 0.00 | 57 | 1018.6 |
| 20260504040005 | 5 | 294 | 0.0 | 0.0 | 0.00 | 0.00 | 0.00 | 56 | 1018.6 |
| 20260504035503 | 5 | 293 | 0.0 | 0.0 | 0.00 | 0.00 | 0.00 | 56 | 1018.6 |
| 20260504034959 | 6 | 292 | 0.0 | 0.0 | 0.00 | 0.00 | 0.00 | 53 | 1018.7 |
| 20260504034457 | 7 | 299 | 1.6 | 1.6 | 0.00 | 0.00 | 0.00 | 51 | 1018.6 |
| 20260504033954 | 7 | 284 | 0.0 | 0.0 | 0.00 | 0.00 | 0.00 | 49 | 1018.7 |
| 20260504033451 | 8 | 289 | 0.0 | 1.6 | 0.00 | 0.00 | 0.00 | 47 | 1018.6 |
| 20260504032948 | 8 | 322 | 1.6 | 1.6 | 0.00 | 0.00 | 0.00 | 46 | 1018.6 |
| 20260504032445 | 8 | 40 | 3.2 | 3.2 | 0.00 | 0.00 | 0.00 | 45 | 1018.6 |
| 20260504031942 | 9 | 276 | 0.0 | 0.0 | 0.00 | 0.00 | 0.00 | 45 | 1018.6 |
| 20260504031439 | 10 | 288 | 0.0 | 0.0 | 0.00 | 0.00 | 0.00 | 44 | 1018.5 |
| 20260504030936 | 10 | 301 | 1.6 | 1.6 | 0.00 | 0.00 | 0.00 | 43 | 1018.7 |
| 20260504030433 | 10 | 295 | 1.6 | 1.6 | 0.00 | 0.00 | 0.00 | 42 | 1018.5 |
| 20260504025928 | 10 | 355 | 3.2 | 3.2 | 0.00 | 0.00 | 0.00 | 42 | 1018.5 |
| 20260504025425 | 10 | 285 | 0.0 | 0.0 | 0.00 | 0.00 | 0.00 | 42 | 1018.4 |
| 20260504024922 | 10 | 84 | 3.2 | 4.8 | 0.00 | 0.00 | 0.00 | 41 | 1018.2 |
| 20260504024420 | 11 | 298 | 1.6 | 3.2 | 0.00 | 0.00 | 0.00 | 41 | 1018.3 |
| 20260504023916 | 11 | 56 | 3.2 | 4.8 | 0.00 | 0.00 | 0.00 | 41 | 1018.3 |
| 20260504023413 | 11 | 54 | 1.6 | 3.2 | 0.00 | 0.00 | 0.00 | 40 | 1018.3 |
| 20260504022908 | 11 | 317 | 1.6 | 1.6 | 0.00 | 0.00 | 0.00 | 40 | 1018.3 |
| 20260504022405 | 11 | 295 | 3.2 | 4.8 | 0.00 | 0.00 | 0.00 | 40 | 1018.3 |
| 20260504021902 | 11 | 133 | 3.2 | 3.2 | 0.00 | 0.00 | 0.00 | 39 | 1018.3 |
| 20260504021359 | 12 | 96 | 4.8 | 4.8 | 0.00 | 0.00 | 0.00 | 37 | 1018.1 |
| 20260504020856 | 12 | 270 | 1.6 | 1.6 | 0.00 | 0.00 | 0.00 | 37 | 1018.3 |
| 20260504020353 | 12 | 345 | 4.8 | 6.4 | 0.00 | 0.00 | 0.00 | 37 | 1018.5 |
| 20260504015849 | 12 | 276 | 0.0 | 0.0 | 0.00 | 0.00 | 0.00 | 37 | 1018.3 |
| 20260504015345 | 12 | 314 | 1.6 | 3.2 | 0.00 | 0.00 | 0.00 | 37 | 1018.4 |
| 20260504014841 | 12 | 312 | 4.8 | 4.8 | 0.00 | 0.00 | 0.00 | 37 | 1018.2 |
| 20260504014337 | 13 | 219 | 1.6 | 1.6 | 0.00 | 0.00 | 0.00 | 37 | 1018.2 |
| 20260504013835 | 12 | 221 | 1.6 | 3.2 | 0.00 | 0.00 | 0.00 | 36 | 1018.3 |
| 20260504013333 | 12 | 359 | 4.8 | 4.8 | 0.00 | 0.00 | 0.00 | 37 | 1018.5 |
| 20260504012829 | 11 | 322 | 1.6 | 1.6 | 0.00 | 0.00 | 0.00 | 39 | 1018.2 |
| 20260504012327 | 11 | 283 | 0.0 | 0.0 | 0.00 | 0.00 | 0.00 | 38 | 1018.4 |
| 20260504011825 | 11 | 272 | 0.0 | 0.0 | 0.00 | 0.00 | 0.00 | 39 | 1018.4 |
| 20260504011321 | 11 | 293 | 1.6 | 3.2 | 0.00 | 0.00 | 0.00 | 38 | 1018.4 |
| 20260504010817 | 11 | 258 | 3.2 | 4.8 | 0.00 | 0.00 | 0.00 | 39 | 1018.5 |
| 20260504010312 | 12 | 295 | 1.6 | 1.6 | 0.00 | 0.00 | 0.00 | 38 | 1018.4 |
| 20260504005809 | 12 | 282 | 3.2 | 3.2 | 0.00 | 0.00 | 0.00 | 38 | 1018.6 |
| 20260504005306 | 12 | 312 | 1.6 | 1.6 | 0.00 | 0.00 | 0.00 | 37 | 1018.2 |
| 20260504004804 | 13 | 284 | 3.2 | 4.8 | 0.00 | 0.00 | 0.00 | 36 | 1018.2 |
| 20260504004301 | 13 | 267 | 3.2 | 4.8 | 0.00 | 0.00 | 0.00 | 35 | 1018.4 |
| 20260504003757 | 13 | 244 | 3.2 | 4.8 | 0.00 | 0.00 | 0.00 | 35 | 1018.2 |
| 20260504003255 | 12 | 0 | 8.0 | 11.3 | 0.00 | 0.00 | 0.00 | 35 | 1018.3 |
| 20260504002751 | 12 | 222 | 3.2 | 4.8 | 0.00 | 0.00 | 0.00 | 37 | 1018.4 |
| 20260504002248 | 12 | 297 | 1.6 | 1.6 | 0.00 | 0.00 | 0.00 | 39 | 1018.3 |
| 20260504001746 | 12 | 214 | 1.6 | 3.2 | 0.00 | 0.00 | 0.00 | 37 | 1018.1 |
| 20260504001243 | 13 | 48 | 6.4 | 9.7 | 0.00 | 0.00 | 0.00 | 37 | 1018.1 |
| 20260504000739 | 13 | 140 | 4.8 | 4.8 | 0.00 | 0.00 | 0.00 | 36 | 1018.5 |
| 20260504000236 | 13 | 32 | 4.8 | 4.8 | 0.00 | 0.00 | 0.00 | 35 | 1018.3 |
| 20260503235735 | 13 | 336 | 4.8 | 4.8 | 0.00 | 0.00 | 0.00 | 35 | 1018.1 |
| 20260503235231 | 12 | 324 | 6.4 | 6.4 | 0.00 | 0.00 | 0.00 | 37 | 1018.6 |
| 20260503234729 | 13 | 66 | 1.6 | 3.2 | 0.00 | 0.00 | 0.00 | 36 | 1018.4 |
| 20260503234227 | 13 | 318 | 8.0 | 11.3 | 0.00 | 0.00 | 0.00 | 37 | 1018.3 |
| 20260503233724 | 14 | 267 | 6.4 | 11.3 | 0.00 | 0.00 | 0.00 | 34 | 1018.3 |
| 20260503233219 | 13 | 265 | 3.2 | 3.2 | 0.00 | 0.00 | 0.00 | 37 | 1018.1 |
| 20260503232716 | 13 | 217 | 3.2 | 4.8 | 0.00 | 0.00 | 0.00 | 37 | 1018.1 |
| 20260503232213 | 14 | 287 | 3.2 | 4.8 | 0.00 | 0.00 | 0.00 | 36 | 1018.2 |
| 20260503231712 | 13 | 280 | 6.4 | 9.7 | 0.00 | 0.00 | 0.00 | 37 | 1018.2 |
| 20260503231208 | 13 | 239 | 6.4 | 16.1 | 0.00 | 0.00 | 0.00 | 38 | 1018.0 |
| 20260503230704 | 13 | 247 | 9.7 | 11.3 | 0.00 | 0.00 | 0.00 | 38 | 1018.2 |
| 20260503230202 | 13 | 295 | 4.8 | 4.8 | 0.00 | 0.00 | 0.00 | 38 | 1018.1 |
| 20260503225659 | 13 | 21 | 11.3 | 16.1 | 0.00 | 0.00 | 0.00 | 37 | 1018.2 |
| 20260503225159 | 12 | 321 | 3.2 | 3.2 | 0.00 | 0.00 | 0.00 | 38 | 1018.2 |
| 20260503224657 | 13 | 326 | 3.2 | 4.8 | 0.00 | 0.00 | 0.00 | 38 | 1018.2 |
| 20260503224154 | 12 | 291 | 4.8 | 11.3 | 0.00 | 0.00 | 0.00 | 39 | 1018.2 |
| 20260503223652 | 13 | 260 | 14.5 | 16.1 | 0.00 | 0.00 | 0.00 | 39 | 1018.2 |
| 20260503223149 | 12 | 230 | 4.8 | 4.8 | 0.00 | 0.00 | 0.00 | 41 | 1018.1 |
| 20260503222646 | 11 | 102 | 1.6 | 3.2 | 0.00 | 0.00 | 0.00 | 42 | 1018.3 |
| 20260503222143 | 11 | 281 | 6.4 | 16.1 | 0.00 | 0.00 | 0.00 | 42 | 1018.5 |
| 20260503221642 | 12 | 238 | 6.4 | 9.7 | 0.00 | 0.00 | 0.00 | 41 | 1018.3 |
| 20260503221139 | 12 | 283 | 9.7 | 14.5 | 0.00 | 0.00 | 0.00 | 40 | 1018.2 |
| 20260503220635 | 13 | 262 | 14.5 | 25.7 | 0.00 | 0.00 | 0.00 | 40 | 1018.2 |
| 20260503220132 | 12 | 244 | 16.1 | 22.5 | 0.00 | 0.00 | 0.00 | 39 | 1018.0 |
| 20260503215629 | 11 | 359 | 11.3 | 14.5 | 0.00 | 0.00 | 0.00 | 41 | 1018.1 |
| 20260503215126 | 11 | 250 | 9.7 | 12.9 | 0.00 | 0.00 | 0.00 | 41 | 1018.0 |
| 20260503214625 | 12 | 264 | 9.7 | 11.3 | 0.00 | 0.00 | 0.00 | 41 | 1018.0 |
| 20260503214120 | 12 | 239 | 3.2 | 9.7 | 0.00 | 0.00 | 0.00 | 42 | 1017.7 |
| 20260503213620 | 12 | 281 | 9.7 | 12.9 | 0.00 | 0.00 | 0.00 | 41 | 1017.7 |
| 20260503213116 | 12 | 213 | 8.0 | 12.9 | 0.00 | 0.00 | 0.00 | 42 | 1017.7 |
| 20260503212613 | 11 | 248 | 12.9 | 22.5 | 0.00 | 0.00 | 0.00 | 43 | 1017.8 |
| 20260503212110 | 11 | 336 | 4.8 | 9.7 | 0.00 | 0.00 | 0.00 | 42 | 1017.7 |
| 20260503211608 | 11 | 280 | 8.0 | 12.9 | 0.00 | 0.00 | 0.00 | 44 | 1017.7 |
| 20260503211103 | 12 | 272 | 8.0 | 9.7 | 0.00 | 0.00 | 0.00 | 44 | 1017.6 |
| 20260503210600 | 12 | 298 | 3.2 | 4.8 | 0.00 | 0.00 | 0.00 | 43 | 1017.6 |
| 20260503210056 | 11 | 249 | 6.4 | 6.4 | 0.00 | 0.00 | 0.00 | 44 | 1017.5 |
| 20260503205552 | 12 | 250 | 3.2 | 4.8 | 0.00 | 0.00 | 0.00 | 44 | 1017.5 |
| 20260503205049 | 12 | 321 | 12.9 | 17.7 | 0.00 | 0.00 | 0.00 | 43 | 1017.6 |
| 20260503204546 | 11 | 220 | 4.8 | 6.4 | 0.00 | 0.00 | 0.00 | 46 | 1017.6 |
| 20260503204043 | 12 | 281 | 11.3 | 14.5 | 0.00 | 0.00 | 0.00 | 45 | 1017.4 |
| 20260503203540 | 11 | 244 | 9.7 | 12.9 | 0.00 | 0.00 | 0.00 | 46 | 1017.4 |
| 20260503203037 | 12 | 274 | 11.3 | 12.9 | 0.00 | 0.00 | 0.00 | 45 | 1017.3 |
| 20260503202535 | 11 | 276 | 1.6 | 3.2 | 0.00 | 0.00 | 0.00 | 47 | 1017.6 |
| 20260503202033 | 11 | 299 | 9.7 | 12.9 | 0.00 | 0.00 | 0.00 | 47 | 1017.4 |
| 20260503201531 | 11 | 259 | 11.3 | 14.5 | 0.00 | 0.00 | 0.00 | 46 | 1017.4 |
| 20260503201028 | 12 | 268 | 19.3 | 22.5 | 0.00 | 0.00 | 0.00 | 45 | 1017.2 |
| 20260503200524 | 12 | 289 | 6.4 | 9.7 | 0.00 | 0.00 | 0.00 | 44 | 1017.2 |
| 20260503200021 | 12 | 265 | 4.8 | 9.7 | 0.00 | 0.00 | 0.00 | 44 | 1017.2 |
| 20260503195518 | 11 | 266 | 16.1 | 25.7 | 0.00 | 0.00 | 0.00 | 45 | 1017.0 |
| 20260503195015 | 12 | 236 | 12.9 | 14.5 | 0.00 | 0.00 | 0.00 | 45 | 1017.3 |
| 20260503194512 | 11 | 113 | 3.2 | 4.8 | 0.00 | 0.00 | 0.00 | 46 | 1017.2 |
| 20260503194011 | 11 | 259 | 9.7 | 12.9 | 0.00 | 0.00 | 0.00 | 48 | 1017.1 |
| 20260503193508 | 11 | 289 | 6.4 | 9.7 | 0.00 | 0.00 | 0.00 | 46 | 1017.2 |
| 20260503193004 | 12 | 285 | 4.8 | 6.4 | 0.00 | 0.00 | 0.00 | 45 | 1016.9 |
| 20260503192500 | 11 | 260 | 3.2 | 4.8 | 0.00 | 0.00 | 0.00 | 45 | 1017.0 |
| 20260503191955 | 11 | 281 | 24.1 | 27.4 | 0.00 | 0.00 | 0.00 | 47 | 1016.9 |
| 20260503191453 | 11 | 263 | 11.3 | 14.5 | 0.00 | 0.00 | 0.00 | 47 | 1016.9 |
| 20260503190949 | 11 | 253 | 14.5 | 22.5 | 0.00 | 0.00 | 0.00 | 45 | 1016.9 |
| 20260503190447 | 11 | 278 | 3.2 | 3.2 | 0.00 | 0.00 | 0.00 | 46 | 1016.9 |
| 20260503185944 | 12 | 96 | 14.5 | 24.1 | 0.00 | 0.00 | 0.00 | 46 | 1017.0 |
| 20260503185440 | 11 | 297 | 9.7 | 12.9 | 0.00 | 0.00 | 0.00 | 47 | 1017.0 |
| 20260503184939 | 12 | 352 | 3.2 | 9.7 | 0.00 | 0.00 | 0.00 | 46 | 1016.9 |
| 20260503184436 | 12 | 241 | 14.5 | 16.1 | 0.00 | 0.00 | 0.00 | 46 | 1016.7 |
| 20260503183933 | 11 | 13 | 3.2 | 4.8 | 0.00 | 0.00 | 0.00 | 46 | 1016.9 |
| 20260503183429 | 11 | 248 | 11.3 | 14.5 | 0.00 | 0.00 | 0.00 | 47 | 1016.9 |
| 20260503182926 | 11 | 251 | 3.2 | 4.8 | 0.00 | 0.00 | 0.00 | 48 | 1016.7 |
| 20260503182425 | 12 | 243 | 24.1 | 35.4 | 0.00 | 0.00 | 0.00 | 47 | 1016.6 |
| 20260503181922 | 11 | 316 | 0.0 | 1.6 | 0.00 | 0.00 | 0.00 | 46 | 1016.6 |
| 20260503181419 | 11 | 225 | 14.5 | 17.7 | 0.00 | 0.00 | 0.00 | 48 | 1016.7 |
| 20260503180915 | 11 | 262 | 6.4 | 6.4 | 0.00 | 0.00 | 0.00 | 47 | 1016.6 |
| 20260503180414 | 11 | 106 | 4.8 | 6.4 | 0.00 | 0.00 | 0.00 | 50 | 1016.7 |
| 20260503175910 | 10 | 244 | 6.4 | 9.7 | 0.00 | 0.00 | 0.00 | 51 | 1016.5 |
| 20260503175408 | 10 | 284 | 12.9 | 17.7 | 0.00 | 0.00 | 0.00 | 52 | 1016.5 |
| 20260503174903 | 10 | 238 | 6.4 | 11.3 | 0.00 | 0.00 | 0.00 | 51 | 1016.3 |
| 20260503174402 | 11 | 313 | 1.6 | 1.6 | 0.00 | 0.00 | 0.00 | 50 | 1016.4 |
| 20260503173856 | 10 | 160 | 4.8 | 4.8 | 0.00 | 0.00 | 0.00 | 52 | 1016.5 |
| 20260503173353 | 10 | 304 | 3.2 | 6.4 | 0.00 | 0.00 | 0.00 | 52 | 1016.5 |
| 20260503172850 | 10 | 251 | 11.3 | 12.9 | 0.00 | 0.00 | 0.00 | 53 | 1016.5 |
| 20260503172347 | 10 | 276 | 14.5 | 16.1 | 0.00 | 0.00 | 0.00 | 52 | 1016.4 |
| 20260503171843 | 10 | 243 | 3.2 | 6.4 | 0.00 | 0.00 | 0.00 | 52 | 1016.4 |
| 20260503171340 | 10 | 256 | 8.0 | 9.7 | 0.00 | 0.00 | 0.00 | 53 | 1016.2 |
| 20260503170838 | 11 | 249 | 16.1 | 17.7 | 0.00 | 0.00 | 0.00 | 52 | 1016.3 |
| 20260503170334 | 10 | 330 | 9.7 | 12.9 | 0.00 | 0.00 | 0.00 | 52 | 1016.1 |
| 20260503150726 | 8 | 250 | 3.2 | 4.8 | 0.00 | 0.00 | 0.00 | 55 | 1015.0 |
| 20260503150222 | 8 | 255 | 9.7 | 12.9 | 0.00 | 0.00 | 0.00 | 57 | 1014.7 |
| 20260503140147 | 7 | 258 | 0.0 | 1.6 | 0.00 | 0.00 | 0.00 | 58 | 1013.7 |
| 20260503131116 | 6 | 267 | 1.6 | 3.2 | 0.00 | 0.00 | 0.00 | 62 | 1013.1 |
| 20260503130614 | 6 | 243 | 3.2 | 4.8 | 0.00 | 0.00 | 0.00 | 62 | 1012.9 |
| 20260503130112 | 6 | 237 | 3.2 | 3.2 | 0.00 | 0.00 | 0.00 | 63 | 1012.9 |
| 20260503110504 | 7 | 351 | 4.8 | 4.8 | 0.00 | 0.00 | 0.00 | 54 | 1011.2 |
| 20260503090355 | 8 | 276 | 0.0 | 0.0 | 0.00 | 0.00 | 0.00 | 50 | 1010.1 |